When you browse on this site, cookies collect data to enhance your experience and personalize the content and advertising you see.
Visit our Privacy Policy to learn more. By continuing to use the site, you agree to this use of cookies and data.
  • In Schweiz
  • Länderverzeichnis
  • Für 7 Tage
  • Wassertemperatur
  • Wetterkarte
  • Widgets
  • user-avatar
    Anmelden

    Stündliche Wetter Halychany

    Heute, 19 Februar, Mittwoch

    Zeit Temperatur Niederschläge Wind Luftdruck Luftfeuchtigkeit
    00:00 +3°C° 0 mm 4 m/S 746 mmHg 85%
    01:00 +1°C° 0 mm 4 m/S 746 mmHg 86%
    02:00 +2°C° 0 mm 3 m/S 746 mmHg 88%
    03:00 +2°C° 0 mm 3 m/S 746 mmHg 88%
    04:00 +1°C° 0 mm 3 m/S 746 mmHg 88%
    05:00 +1°C° 0 mm 3 m/S 745 mmHg 88%
    06:00 +1°C° 0 mm 3 m/S 745 mmHg 89%
    07:00 0°C° 0 mm 3 m/S 745 mmHg 89%
    08:00 0°C° 0 mm 3 m/S 745 mmHg 90%
    09:00 +2°C° 0 mm 3 m/S 745 mmHg 84%
    10:00 +3°C° 0 mm 4 m/S 745 mmHg 78%
    11:00 +4°C° 0 mm 4 m/S 744 mmHg 72%
    12:00 +5°C° 0 mm 4 m/S 744 mmHg 67%
    13:00 +6°C° 0 mm 4 m/S 744 mmHg 62%
    14:00 +7°C° 0 mm 4 m/S 743 mmHg 57%
    15:00 +6°C° 0 mm 4 m/S 743 mmHg 59%
    16:00 +7°C° 0 mm 3 m/S 743 mmHg 62%
    17:00 +6°C° 0 mm 2 m/S 742 mmHg 65%
    18:00 +6°C° 0 mm 2 m/S 742 mmHg 68%
    19:00 +5°C° 0 mm 2 m/S 742 mmHg 72%
    20:00 +4°C° 0 mm 2 m/S 742 mmHg 76%
    21:00 +4°C° 0 mm 2 m/S 742 mmHg 78%
    22:00 +2°C° 0 mm 3 m/S 742 mmHg 80%
    23:00 +2°C° 0 mm 3 m/S 742 mmHg 83%

    Morgen, 20 Februar, Donnerstag

    Zeit Temperatur Niederschläge Wind Luftdruck Luftfeuchtigkeit
    00:00 +2°C° 0 mm 3 m/S 742 mmHg 83%
    01:00 +2°C° 0 mm 3 m/S 742 mmHg 84%
    02:00 +2°C° 0 mm 3 m/S 742 mmHg 85%
    03:00 +1°C° 0 mm 4 m/S 742 mmHg 86%
    04:00 +1°C° 0 mm 4 m/S 743 mmHg 86%
    05:00 +1°C° 0 mm 4 m/S 743 mmHg 86%
    06:00 +1°C° 0 mm 4 m/S 743 mmHg 87%
    07:00 0°C° 0 mm 4 m/S 743 mmHg 88%
    08:00 +1°C° 0 mm 3 m/S 744 mmHg 88%
    09:00 +1°C° 0 mm 3 m/S 744 mmHg 84%
    10:00 +1°C° 0 mm 4 m/S 744 mmHg 79%
    11:00 +3°C° 0 mm 4 m/S 745 mmHg 75%
    12:00 +3°C° 0 mm 4 m/S 745 mmHg 73%
    13:00 +4°C° 0 mm 4 m/S 745 mmHg 72%
    14:00 +4°C° 0 mm 4 m/S 745 mmHg 71%
    15:00 +4°C° 0.1 mm 4 m/S 745 mmHg 74%
    16:00 +3°C° 0.1 mm 3 m/S 745 mmHg 77%
    17:00 +3°C° 0.1 mm 3 m/S 745 mmHg 81%
    18:00 +2°C° 0 mm 3 m/S 746 mmHg 83%
    19:00 +3°C° 0 mm 2 m/S 746 mmHg 85%
    20:00 +2°C° 0 mm 2 m/S 746 mmHg 88%
    21:00 +3°C° 0 mm 1 m/S 746 mmHg 87%
    22:00 +3°C° 0 mm 1 m/S 747 mmHg 86%
    23:00 +3°C° 0 mm 1 m/S 747 mmHg 85%

    übermorgen, 21 Februar, Freitag

    Zeit Temperatur Niederschläge Wind Luftdruck Luftfeuchtigkeit
    00:00 +2°C° 0 mm 1 m/S 747 mmHg 87%
    01:00 +2°C° 0 mm 1 m/S 747 mmHg 88%
    02:00 +1°C° 0 mm 2 m/S 747 mmHg 90%
    03:00 -1°C° 0 mm 2 m/S 746 mmHg 91%
    04:00 -1°C° 0 mm 2 m/S 746 mmHg 92%
    05:00 -1°C° 0 mm 2 m/S 746 mmHg 94%
    06:00 -1°C° 0 mm 3 m/S 745 mmHg 92%
    07:00 -1°C° 0 mm 3 m/S 745 mmHg 90%
    08:00 -1°C° 0 mm 3 m/S 745 mmHg 88%
    15:00 +3°C° 0.6 mm 6 m/S 743 mmHg 68%
    16:00 +2°C° 0.6 mm 6 m/S 743 mmHg 82%
    17:00 -1°C° 0.6 mm 6 m/S 743 mmHg 95%
    18:00 -1°C° 0.5 mm 6 m/S 744 mmHg 95%
    19:00 -1°C° 0.5 mm 7 m/S 745 mmHg 95%
    20:00 -1°C° 0.5 mm 7 m/S 746 mmHg 95%
    21:00 -1°C° 0.1 mm 6 m/S 746 mmHg 91%
    22:00 -1°C° 0.1 mm 6 m/S 746 mmHg 87%
    23:00 0°C° 0.1 mm 5 m/S 747 mmHg 83%

    22 Februar, Samstag

    Zeit Temperatur Niederschläge Wind Luftdruck Luftfeuchtigkeit
    00:00 0°C° 0 mm 5 m/S 747 mmHg 84%
    01:00 -1°C° 0 mm 4 m/S 748 mmHg 85%
    02:00 -1°C° 0 mm 4 m/S 748 mmHg 87%
    03:00 -2°C° 0 mm 4 m/S 748 mmHg 88%
    04:00 -2°C° 0 mm 4 m/S 749 mmHg 90%
    05:00 -2°C° 0 mm 4 m/S 749 mmHg 92%
    06:00 -1°C° 0 mm 3 m/S 749 mmHg 92%
    07:00 -1°C° 0 mm 3 m/S 750 mmHg 93%
    08:00 -1°C° 0 mm 3 m/S 750 mmHg 93%
    09:00 0°C° 0 mm 3 m/S 750 mmHg 88%
    10:00 +1°C° 0 mm 3 m/S 751 mmHg 83%
    11:00 +2°C° 0 mm 3 m/S 751 mmHg 78%
    12:00 +3°C° 0 mm 4 m/S 750 mmHg 74%
    13:00 +4°C° 0 mm 4 m/S 750 mmHg 69%
    14:00 +4°C° 0 mm 4 m/S 750 mmHg 65%
    15:00 +4°C° 0 mm 4 m/S 749 mmHg 66%
    16:00 +4°C° 0 mm 4 m/S 749 mmHg 67%
    17:00 +4°C° 0 mm 4 m/S 748 mmHg 68%
    18:00 +2°C° 0 mm 5 m/S 748 mmHg 69%
    19:00 +2°C° 0 mm 5 m/S 747 mmHg 70%
    20:00 +1°C° 0 mm 6 m/S 747 mmHg 71%
    21:00 +1°C° 0 mm 6 m/S 746 mmHg 71%
    22:00 0°C° 0 mm 7 m/S 745 mmHg 70%
    23:00 0°C° 0 mm 7 m/S 745 mmHg 69%

    23 Februar, Sonntag

    Zeit Temperatur Niederschläge Wind Luftdruck Luftfeuchtigkeit
    00:00 0°C° 0.1 mm 8 m/S 744 mmHg 70%
    01:00 0°C° 0.1 mm 8 m/S 743 mmHg 70%
    02:00 +1°C° 0.1 mm 8 m/S 743 mmHg 71%
    03:00 +1°C° 0.8 mm 9 m/S 742 mmHg 76%
    04:00 +1°C° 0.8 mm 9 m/S 741 mmHg 80%
    05:00 +1°C° 0.8 mm 9 m/S 740 mmHg 85%
    06:00 +1°C° 0.2 mm 9 m/S 740 mmHg 83%
    07:00 +1°C° 0.2 mm 10 m/S 740 mmHg 82%
    08:00 +2°C° 0.2 mm 10 m/S 739 mmHg 80%
    09:00 +2°C° 0.5 mm 10 m/S 739 mmHg 82%
    10:00 +2°C° 0.5 mm 9 m/S 739 mmHg 84%
    11:00 +2°C° 0.5 mm 9 m/S 739 mmHg 86%
    12:00 +3°C° 0.1 mm 10 m/S 739 mmHg 77%
    13:00 +4°C° 0.1 mm 11 m/S 739 mmHg 68%
    14:00 +4°C° 0.1 mm 11 m/S 740 mmHg 59%
    15:00 +5°C° 0.1 mm 10 m/S 740 mmHg 61%
    16:00 +3°C° 0.1 mm 9 m/S 740 mmHg 63%
    17:00 +2°C° 0.1 mm 8 m/S 740 mmHg 65%
    18:00 +3°C° 0 mm 7 m/S 740 mmHg 69%
    19:00 +2°C° 0 mm 6 m/S 740 mmHg 73%
    20:00 +2°C° 0 mm 5 m/S 740 mmHg 77%
    21:00 +1°C° 0 mm 5 m/S 739 mmHg 80%
    22:00 +1°C° 0 mm 4 m/S 738 mmHg 84%
    23:00 +1°C° 0 mm 4 m/S 737 mmHg 88%

    24 Februar, Montag

    Zeit Temperatur Niederschläge Wind Luftdruck Luftfeuchtigkeit
    00:00 +1°C° 1.1 mm 4 m/S 735 mmHg 91%
    01:00 +1°C° 1.1 mm 4 m/S 733 mmHg 94%
    02:00 +1°C° 1.1 mm 4 m/S 732 mmHg 97%
    03:00 +3°C° 2.8 mm 4 m/S 730 mmHg 96%
    04:00 +3°C° 2.8 mm 5 m/S 728 mmHg 96%
    05:00 +4°C° 2.8 mm 6 m/S 726 mmHg 95%
    06:00 +2°C° 0.4 mm 8 m/S 727 mmHg 95%
    07:00 -1°C° 0.4 mm 11 m/S 728 mmHg 95%
    08:00 -2°C° 0.4 mm 13 m/S 728 mmHg 94%
    09:00 -2°C° 0.2 mm 13 m/S 730 mmHg 89%
    10:00 -2°C° 0.2 mm 12 m/S 732 mmHg 83%
    11:00 -2°C° 0.2 mm 12 m/S 734 mmHg 78%
    12:00 -1°C° 0.2 mm 12 m/S 735 mmHg 75%
    13:00 -1°C° 0.2 mm 12 m/S 736 mmHg 72%
    14:00 0°C° 0.2 mm 12 m/S 737 mmHg 68%
    15:00 +1°C° 0.2 mm 11 m/S 737 mmHg 69%
    16:00 +1°C° 0.2 mm 11 m/S 738 mmHg 70%
    17:00 +1°C° 0.2 mm 10 m/S 739 mmHg 71%
    18:00 +1°C° 0 mm 9 m/S 740 mmHg 70%
    19:00 0°C° 0 mm 8 m/S 741 mmHg 70%
    20:00 0°C° 0 mm 8 m/S 742 mmHg 70%
    21:00 -1°C° 0 mm 7 m/S 742 mmHg 71%
    22:00 -1°C° 0 mm 7 m/S 743 mmHg 73%
    23:00 -2°C° 0 mm 7 m/S 744 mmHg 75%
    Mehr zeigen